User: anonymous
Location: Unspecified
(0.0000°N, 0.0000°E)
Time: 14:16:07
(UTC+00:00)
Language:

SWISSCUBE - Orbit

View from above orbital plane
View from above orbital plane
View from above satellite
View from above satellite

Ground track
Ground track

The orbit data is extracted from the following two-line orbital elements,

1 35932U 09051B   14273.30465282  .00001550  00000-0  37351-3 0  4240
2 35932 098.3881 025.8307 0008666 065.1593 295.0503 14.54618535266179
Epoch (UTC): 30 September 2014 07:18:42
Eccentricity: 0.0008666
inclination: 98.3881°
perigee height: 704 km
apogee height: 717 km
right ascension of ascending node: 25.8307°
argument of perigee: 65.1593°
revolutions per day: 14.54618535
mean anomaly at epoch: 295.0503°
orbit number at epoch: 26617

The dashed part of the orbit path shows where the satellite is in the earth's shadow,  

DLR